Find Starlink 11492

NORAD ID: 62224 Int'l Des: 2024-231 Owner: SPXS Country: US Constellation: starlink operational
LEOCIRCULAR

当前视图

正在加载3D地球...

About Starlink 11492

Starlink 11492 (NORAD 62224) is a starlink constellation satellite (v2 mini d2c) launched Dec 5, 2024 by SPXS of US. It operates in LEO, CIRCULAR orbit with a mass of 960.00 kg.

关于 Starlink 11492

正在加载描述...

即将过境

Passes for default location (London). Set your location on the main map for personalized predictions.

高度历史

Loading altitude history...

两行轨道根数

1 62224U 24231G 26170.78589024 .00159759 00000-0 12963-2 0 9996
2 62224 53.1569 318.2156 0000853 97.3926 262.7189 15.69745927 89440
Epoch: Jun 19, 2026 • Age: 47 hours

当前状态

高度 358.5 km
速度 7.70 km/s
星下点 23.78°N, 142.43°E
发射日期 Dec 5, 2024
运行时间 1.5 years
类型 internet

技术详情

分类 Payload
质量 960.00 kg
干质量 910.00 kg
总质量 960.00 kg
长度 0.30 m
直径 4.10 m
跨度 29.00 m
形状 Box + pan
制造商 SPXS
平台类型 Starlink V2MD
阶段状态 In Orbit
所有者/国家 SPXS/US

Most Searched